Time,TemperatureF,DewpointF,PressureIn,WindDirection,WindDirectionDegrees,WindSpeedMPH,WindSpeedGustMPH,Humidity,HourlyPrecipIn,Conditions,Clouds,dailyrainin,SoftwareType,DateUTC
2013-03-25 00:00:00,32.2,-13.2,29.79,North,357,3.0,4.0,13,0.00,,,0.00,meteohub,2013-03-25 04:00:00,
2013-03-25 00:01:00,32.2,-13.2,29.79,North,3,3.0,4.0,13,0.00,,,0.00,meteohub,2013-03-25 04:01:00,
2013-03-25 00:02:00,32.0,-13.4,29.79,North,2,3.0,4.0,13,0.00,,,0.00,meteohub,2013-03-25 04:02:00,
2013-03-25 00:05:00,32.0,-13.4,29.79,North,3,2.0,4.0,13,0.00,,,0.00,meteohub,2013-03-25 04:05:00,
2013-03-25 00:10:00,31.8,-13.5,29.79,North,357,3.0,4.0,13,0.00,,,0.00,meteohub,2013-03-25 04:10:00,
2013-03-25 00:15:00,31.8,-13.5,29.79,North,1,3.0,4.0,13,0.00,,,0.00,meteohub,2013-03-25 04:15:00,
2013-03-25 00:20:00,31.8,-13.5,29.79,North,3,3.0,4.0,13,0.00,,,0.00,meteohub,2013-03-25 04:20:00,
2013-03-25 00:25:00,31.8,-13.5,29.79,North,3,3.0,4.0,13,0.00,,,0.00,meteohub,2013-03-25 04:25:00,
2013-03-25 00:30:00,31.8,-13.5,29.79,North,3,3.0,4.0,13,0.00,,,0.00,meteohub,2013-03-25 04:30:00,
2013-03-25 00:36:00,31.8,-10.7,29.79,North,2,4.0,4.0,15,0.00,,,0.00,meteohub,2013-03-25 04:36:00,
2013-03-25 00:42:00,32.0,-10.5,29.79,North,353,4.0,4.0,15,0.00,,,0.00,meteohub,2013-03-25 04:42:00,
2013-03-25 00:47:00,32.2,-10.3,29.79,SW,225,4.0,4.0,15,0.00,,,0.00,meteohub,2013-03-25 04:47:00,
2013-03-25 00:52:00,32.2,-10.3,29.79,WSW,250,4.0,4.0,15,0.00,,,0.00,meteohub,2013-03-25 04:52:00,
2013-03-25 00:57:00,32.2,-10.3,29.79,WSW,253,4.0,5.0,15,0.00,,,0.00,meteohub,2013-03-25 04:57:00,
2013-03-25 01:02:00,32.0,-10.5,29.79,West,262,3.0,5.0,15,0.00,,,0.00,meteohub,2013-03-25 05:02:00,
2013-03-25 01:07:00,32.0,-10.5,29.79,West,277,4.0,5.0,15,0.00,,,0.00,meteohub,2013-03-25 05:07:00,
2013-03-25 01:13:00,32.0,-6.7,29.79,West,273,5.0,5.0,18,0.00,,,0.00,meteohub,2013-03-25 05:13:00,
2013-03-25 01:18:00,32.0,-6.7,29.79,West,264,5.0,6.0,18,0.00,,,0.00,meteohub,2013-03-25 05:18:00,
2013-03-25 01:23:00,32.0,-6.7,29.79,WSW,258,5.0,6.0,18,0.00,,,0.00,meteohub,2013-03-25 05:23:00,
2013-03-25 01:29:00,32.0,-6.7,29.79,WSW,258,5.0,6.0,18,0.00,,,0.00,meteohub,2013-03-25 05:29:00,
2013-03-25 01:34:00,32.2,-6.5,29.79,West,273,4.0,6.0,18,0.00,,,0.00,meteohub,2013-03-25 05:34:00,
2013-03-25 01:39:00,32.2,-6.5,29.79,West,265,5.0,6.0,18,0.00,,,0.00,meteohub,2013-03-25 05:39:00,
2013-03-25 01:44:00,32.2,-4.4,29.79,West,268,5.0,6.0,20,0.00,,,0.00,meteohub,2013-03-25 05:44:00,
2013-03-25 01:50:00,32.2,-4.4,29.79,West,272,5.0,6.0,20,0.00,,,0.00,meteohub,2013-03-25 05:50:00,
2013-03-25 01:55:00,32.2,-4.4,29.79,West,275,4.0,6.0,20,0.00,,,0.00,meteohub,2013-03-25 05:55:00,
2013-03-25 02:01:00,32.2,-4.4,29.79,West,271,4.0,6.0,20,0.00,,,0.00,meteohub,2013-03-25 06:01:00,
2013-03-25 02:06:00,32.2,-4.4,29.79,West,270,4.0,6.0,20,0.00,,,0.00,meteohub,2013-03-25 06:06:00,
2013-03-25 02:11:00,32.2,-4.4,29.79,West,273,4.0,5.0,20,0.00,,,0.00,meteohub,2013-03-25 06:11:00,
2013-03-25 02:17:00,32.0,-4.5,29.79,West,268,4.0,5.0,20,0.00,,,0.00,meteohub,2013-03-25 06:17:00,
2013-03-25 02:22:00,32.0,-4.5,29.79,West,267,4.0,5.0,20,0.00,,,0.00,meteohub,2013-03-25 06:22:00,
2013-03-25 02:27:00,32.2,-1.5,29.79,West,267,4.0,5.0,23,0.00,,,0.00,meteohub,2013-03-25 06:27:00,
2013-03-25 02:32:00,32.0,-1.7,29.76,West,267,4.0,5.0,23,0.00,,,0.00,meteohub,2013-03-25 06:32:00,
2013-03-25 02:37:00,31.8,-1.8,29.76,West,267,4.0,5.0,23,0.00,,,0.00,meteohub,2013-03-25 06:37:00,
2013-03-25 02:42:00,31.8,-1.8,29.76,West,276,5.0,5.0,23,0.00,,,0.00,meteohub,2013-03-25 06:42:00,
2013-03-25 02:48:00,31.8,-1.8,29.76,West,276,4.0,5.0,23,0.00,,,0.00,meteohub,2013-03-25 06:48:00,
2013-03-25 02:53:00,31.8,-1.8,29.76,West,275,4.0,5.0,23,0.00,,,0.00,meteohub,2013-03-25 06:53:00,
2013-03-25 02:58:00,32.0,-1.7,29.76,West,275,4.0,5.0,23,0.00,,,0.00,meteohub,2013-03-25 06:58:00,
2013-03-25 03:04:00,32.0,-1.7,29.76,West,275,4.0,5.0,23,0.00,,,0.00,meteohub,2013-03-25 07:04:00,
2013-03-25 03:09:00,32.0,-1.7,29.76,West,276,4.0,4.0,23,0.00,,,0.00,meteohub,2013-03-25 07:09:00,
2013-03-25 03:15:00,31.8,0.0,29.76,West,277,4.0,5.0,25,0.00,,,0.00,meteohub,2013-03-25 07:15:00,
2013-03-25 03:20:00,31.8,0.0,29.76,West,279,4.0,5.0,25,0.00,,,0.00,meteohub,2013-03-25 07:20:00,
2013-03-25 03:25:00,31.8,2.5,29.76,West,281,4.0,5.0,28,0.00,,,0.00,meteohub,2013-03-25 07:25:00,
2013-03-25 03:30:00,31.8,2.5,29.76,West,281,5.0,6.0,28,0.00,,,0.00,meteohub,2013-03-25 07:30:00,
2013-03-25 03:36:00,32.0,4.1,29.76,WNW,283,5.0,6.0,30,0.00,,,0.00,meteohub,2013-03-25 07:36:00,
2013-03-25 03:41:00,32.0,4.1,29.76,WNW,282,3.0,6.0,30,0.00,,,0.00,meteohub,2013-03-25 07:41:00,
2013-03-25 03:47:00,32.0,4.1,29.76,WNW,283,4.0,5.0,30,0.00,,,0.00,meteohub,2013-03-25 07:47:00,
2013-03-25 03:52:00,32.2,4.3,29.76,WNW,283,4.0,5.0,30,0.00,,,0.00,meteohub,2013-03-25 07:52:00,
2013-03-25 03:57:00,32.2,5.0,29.76,WNW,283,4.0,4.0,31,0.00,,,0.00,meteohub,2013-03-25 07:57:00,
2013-03-25 04:02:00,32.0,4.8,29.76,WNW,285,4.0,4.0,31,0.00,,,0.00,meteohub,2013-03-25 08:02:00,
2013-03-25 04:07:00,32.0,4.8,29.76,WNW,286,4.0,4.0,31,0.00,,,0.00,meteohub,2013-03-25 08:07:00,
2013-03-25 04:13:00,32.2,5.5,29.76,WNW,288,4.0,6.0,32,0.00,,,0.00,meteohub,2013-03-25 08:13:00,
2013-03-25 04:18:00,32.2,5.5,29.76,WNW,288,4.0,6.0,32,0.00,,,0.00,meteohub,2013-03-25 08:18:00,
2013-03-25 04:23:00,32.2,5.5,29.76,WNW,288,4.0,6.0,32,0.00,,,0.00,meteohub,2013-03-25 08:23:00,
2013-03-25 04:28:00,32.2,5.5,29.76,WNW,288,4.0,6.0,32,0.00,,,0.00,meteohub,2013-03-25 08:28:00,
2013-03-25 04:34:00,32.4,5.7,29.73,WNW,288,4.0,6.0,32,0.00,,,0.00,meteohub,2013-03-25 08:34:00,
2013-03-25 04:39:00,32.2,5.5,29.73,WNW,288,3.0,4.0,32,0.00,,,0.00,meteohub,2013-03-25 08:39:00,
2013-03-25 04:44:00,32.2,5.5,29.73,WNW,288,3.0,4.0,32,0.00,,,0.00,meteohub,2013-03-25 08:44:00,
2013-03-25 04:49:00,32.2,5.5,29.73,WNW,288,3.0,4.0,32,0.00,,,0.00,meteohub,2013-03-25 08:49:00,
2013-03-25 04:54:00,32.0,5.5,29.73,WNW,288,3.0,4.0,32,0.00,,,0.00,meteohub,2013-03-25 08:54:00,
2013-03-25 04:59:00,32.0,5.5,29.73,WNW,288,3.0,4.0,32,0.00,,,0.00,meteohub,2013-03-25 08:59:00,
2013-03-25 05:05:00,31.8,5.4,29.73,WNW,288,3.0,4.0,32,0.00,,,0.00,meteohub,2013-03-25 09:05:00,
2013-03-25 05:10:00,31.6,5.2,29.73,WNW,288,3.0,3.0,32,0.00,,,0.00,meteohub,2013-03-25 09:10:00,
2013-03-25 05:16:00,31.6,5.2,29.73,WNW,288,3.0,3.0,32,0.00,,,0.00,meteohub,2013-03-25 09:16:00,
2013-03-25 05:21:00,31.5,5.0,29.73,WNW,288,3.0,3.0,32,0.00,,,0.00,meteohub,2013-03-25 09:21:00,
2013-03-25 05:27:00,31.3,4.8,29.73,WNW,288,3.0,3.0,32,0.00,,,0.00,meteohub,2013-03-25 09:27:00,
2013-03-25 05:32:00,31.3,4.8,29.73,WNW,288,3.0,3.0,32,0.00,,,0.00,meteohub,2013-03-25 09:32:00,
2013-03-25 05:37:00,31.1,5.4,29.73,WNW,288,4.0,4.0,33,0.00,,,0.00,meteohub,2013-03-25 09:37:00,
2013-03-25 05:43:00,31.1,5.4,29.73,WNW,288,4.0,4.0,33,0.00,,,0.00,meteohub,2013-03-25 09:43:00,
2013-03-25 05:48:00,30.9,5.2,29.70,WNW,289,4.0,4.0,33,0.00,,,0.00,meteohub,2013-03-25 09:48:00,
2013-03-25 05:53:00,30.7,5.0,29.70,WNW,289,4.0,5.0,33,0.00,,,0.00,meteohub,2013-03-25 09:53:00,
2013-03-25 05:59:00,31.1,6.1,29.70,WNW,289,4.0,5.0,34,0.00,,,0.00,meteohub,2013-03-25 09:59:00,
2013-03-25 06:04:00,31.3,6.1,29.70,WNW,288,6.0,6.0,34,0.00,,,0.00,meteohub,2013-03-25 10:04:00,
2013-03-25 06:09:00,31.5,7.0,29.70,WNW,290,5.0,5.0,35,0.00,,,0.00,meteohub,2013-03-25 10:09:00,
2013-03-25 06:14:00,31.8,7.9,29.70,WNW,289,4.0,6.0,36,0.00,,,0.00,meteohub,2013-03-25 10:14:00,
2013-03-25 06:20:00,32.0,8.1,29.70,WNW,287,4.0,6.0,36,0.00,,,0.00,meteohub,2013-03-25 10:20:00,
2013-03-25 06:25:00,32.2,8.2,29.70,WNW,287,4.0,6.0,36,0.00,,,0.00,meteohub,2013-03-25 10:25:00,
2013-03-25 06:30:00,32.2,8.2,29.73,WNW,287,4.0,6.0,36,0.00,,,0.00,meteohub,2013-03-25 10:30:00,
2013-03-25 06:36:00,32.4,8.4,29.73,WNW,287,4.0,5.0,36,0.00,,,0.00,meteohub,2013-03-25 10:36:00,
2013-03-25 06:42:00,32.4,9.0,29.73,WNW,287,4.0,5.0,37,0.00,,,0.00,meteohub,2013-03-25 10:42:00,
2013-03-25 06:47:00,32.5,9.1,29.73,WNW,287,4.0,5.0,37,0.00,,,0.00,meteohub,2013-03-25 10:47:00,
2013-03-25 06:52:00,32.5,9.1,29.73,WNW,287,3.0,4.0,37,0.00,,,0.00,meteohub,2013-03-25 10:52:00,
2013-03-25 06:58:00,32.5,9.1,29.73,WNW,288,4.0,4.0,37,0.00,,,0.00,meteohub,2013-03-25 10:58:00,
2013-03-25 07:03:00,32.5,9.7,29.73,WNW,289,4.0,4.0,38,0.00,,,0.00,meteohub,2013-03-25 11:03:00,
2013-03-25 07:08:00,32.7,9.9,29.73,WNW,289,4.0,5.0,38,0.00,,,0.00,meteohub,2013-03-25 11:08:00,
2013-03-25 07:13:00,32.9,10.0,29.73,WNW,289,4.0,5.0,38,0.00,,,0.00,meteohub,2013-03-25 11:13:00,
2013-03-25 07:18:00,32.9,10.0,29.73,WNW,289,4.0,5.0,38,0.00,,,0.00,meteohub,2013-03-25 11:18:00,
2013-03-25 07:24:00,33.1,10.2,29.73,WNW,289,5.0,5.0,38,0.00,,,0.00,meteohub,2013-03-25 11:24:00,
2013-03-25 07:29:00,33.1,10.2,29.70,WNW,293,4.0,5.0,38,0.00,,,0.00,meteohub,2013-03-25 11:29:00,
2013-03-25 07:34:00,33.3,10.9,29.70,WNW,295,4.0,5.0,39,0.00,,,0.00,meteohub,2013-03-25 11:34:00,
2013-03-25 07:40:00,33.4,11.1,29.70,WNW,301,4.0,5.0,39,0.00,,,0.00,meteohub,2013-03-25 11:40:00,
2013-03-25 07:45:00,33.6,11.8,29.70,WNW,301,3.0,5.0,40,0.00,,,0.00,meteohub,2013-03-25 11:45:00,
2013-03-25 07:50:00,34.0,12.2,29.70,WNW,303,5.0,5.0,40,0.00,,,0.00,meteohub,2013-03-25 11:50:00,
2013-03-25 07:55:00,34.3,12.6,29.70,NW,304,4.0,5.0,40,0.00,,,0.00,meteohub,2013-03-25 11:55:00,
2013-03-25 08:00:00,35.1,13.6,29.73,NW,304,5.0,5.0,41,0.00,,,0.00,meteohub,2013-03-25 12:00:00,
2013-03-25 08:06:00,36.0,15.1,29.73,WNW,294,4.0,5.0,42,0.00,,,0.00,meteohub,2013-03-25 12:06:00,
2013-03-25 08:11:00,36.7,16.3,29.73,NW,304,4.0,5.0,43,0.00,,,0.00,meteohub,2013-03-25 12:11:00,
2013-03-25 08:17:00,37.2,17.8,29.70,NW,319,5.0,6.0,45,0.00,,,0.00,meteohub,2013-03-25 12:17:00,
2013-03-25 08:22:00,37.8,18.3,29.70,NW,316,6.0,6.0,45,0.00,,,0.00,meteohub,2013-03-25 12:22:00,
2013-03-25 08:27:00,38.3,18.9,29.70,NW,318,4.0,6.0,45,0.00,,,0.00,meteohub,2013-03-25 12:27:00,
2013-03-25 08:32:00,38.7,19.2,29.70,NNW,338,6.0,8.0,45,0.00,,,0.00,meteohub,2013-03-25 12:32:00,
2013-03-25 08:37:00,39.0,18.9,29.70,NNW,333,8.0,8.0,44,0.00,,,0.00,meteohub,2013-03-25 12:37:00,
2013-03-25 08:42:00,39.2,18.5,29.70,NW,314,5.0,8.0,43,0.00,,,0.00,meteohub,2013-03-25 12:42:00,
2013-03-25 08:46:00,39.4,18.1,29.70,NNW,339,5.0,8.0,42,0.00,,,0.00,meteohub,2013-03-25 12:46:00,
2013-03-25 08:47:00,39.4,18.1,29.70,NNW,334,4.0,8.0,42,0.00,,,0.00,meteohub,2013-03-25 12:47:00,
2013-03-25 08:52:00,39.9,18.7,29.70,NW,307,5.0,8.0,42,0.00,,,0.00,meteohub,2013-03-25 12:52:00,
2013-03-25 08:57:00,40.3,18.5,29.70,NNW,338,5.0,8.0,41,0.00,,,0.00,meteohub,2013-03-25 12:57:00,
2013-03-25 09:02:00,41.0,19.0,29.70,NW,321,5.0,8.0,41,0.00,,,0.00,meteohub,2013-03-25 13:02:00,
2013-03-25 09:07:00,41.5,19.0,29.70,NNW,330,8.0,8.0,40,0.00,,,0.00,meteohub,2013-03-25 13:07:00,
2013-03-25 09:12:00,41.7,18.0,29.70,NW,321,4.0,8.0,38,0.00,,,0.00,meteohub,2013-03-25 13:12:00,
2013-03-25 09:17:00,42.3,17.8,29.70,North,353,6.0,8.0,37,0.00,,,0.00,meteohub,2013-03-25 13:17:00,
2013-03-25 09:23:00,42.3,14.5,29.70,North,7,10.0,11.0,32,0.00,,,0.00,meteohub,2013-03-25 13:23:00,
2013-03-25 09:28:00,42.4,14.0,29.70,NNW,345,12.0,12.0,31,0.00,,,0.00,meteohub,2013-03-25 13:28:00,
2013-03-25 09:33:00,42.6,13.3,29.70,NW,326,8.0,11.0,30,0.00,,,0.00,meteohub,2013-03-25 13:33:00,
2013-03-25 09:38:00,42.8,12.0,29.70,NW,312,12.0,14.0,28,0.00,,,0.00,meteohub,2013-03-25 13:38:00,
2013-03-25 09:43:00,43.2,12.2,29.70,North,353,11.0,14.0,28,0.00,,,0.00,meteohub,2013-03-25 13:43:00,
2013-03-25 09:49:00,43.0,4.6,29.70,NNW,335,13.0,14.0,20,0.00,,,0.00,meteohub,2013-03-25 13:49:00,
2013-03-25 09:54:00,43.3,2.7,29.70,NNW,330,16.0,17.0,18,0.00,,,0.00,meteohub,2013-03-25 13:54:00,
2013-03-25 09:59:00,43.5,-1.1,29.68,NNW,333,10.0,17.0,15,0.00,,,0.00,meteohub,2013-03-25 13:59:00,
2013-03-25 10:04:00,43.7,-0.9,29.68,North,357,13.0,17.0,15,0.00,,,0.00,meteohub,2013-03-25 14:04:00,
2013-03-25 10:10:00,43.5,-4.2,29.68,North,353,7.0,17.0,13,0.00,,,0.00,meteohub,2013-03-25 14:10:00,
2013-03-25 10:15:00,43.5,-4.2,29.68,NNW,341,15.0,17.0,13,0.00,,,0.00,meteohub,2013-03-25 14:15:00,
2013-03-25 10:20:00,44.1,-3.6,29.68,North,350,15.0,17.0,13,0.00,,,0.00,meteohub,2013-03-25 14:20:00,
2013-03-25 10:25:00,44.6,-4.9,29.68,North,353,17.0,17.0,12,0.00,,,0.00,meteohub,2013-03-25 14:25:00,
2013-03-25 10:30:00,45.0,-8.3,29.68,NNW,328,15.0,17.0,10,0.00,,,0.00,meteohub,2013-03-25 14:30:00,
2013-03-25 10:35:00,45.3,-8.1,29.68,North,353,10.0,19.0,10,0.00,,,0.00,meteohub,2013-03-25 14:35:00,
2013-03-25 10:41:00,45.7,-7.8,29.68,North,2,8.0,19.0,10,0.00,,,0.00,meteohub,2013-03-25 14:41:00,
2013-03-25 10:46:00,45.1,-8.3,29.68,North,353,15.0,19.0,10,-99.99,,,0.00,meteohub,2013-03-25 14:46:00,
2013-03-25 10:52:00,45.1,-8.3,29.68,North,8,12.0,20.0,10,0.00,,,0.00,meteohub,2013-03-25 14:52:00,
2013-03-25 10:57:00,45.3,-8.1,29.68,NNW,337,9.0,20.0,10,0.00,,,0.00,meteohub,2013-03-25 14:57:00,
2013-03-25 11:02:00,45.5,-8.0,29.68,West,276,13.0,20.0,10,0.00,,,0.00,meteohub,2013-03-25 15:02:00,
2013-03-25 11:07:00,45.9,-7.6,29.68,North,357,16.0,17.0,10,0.00,,,0.00,meteohub,2013-03-25 15:07:00,
2013-03-25 11:13:00,46.0,-7.6,29.68,North,357,11.0,17.0,10,0.00,,,0.00,meteohub,2013-03-25 15:13:00,
2013-03-25 11:18:00,45.5,-8.0,29.68,NNW,346,20.0,20.0,10,0.00,,,0.00,meteohub,2013-03-25 15:18:00,
2013-03-25 11:23:00,45.9,-7.6,29.68,NNW,331,15.0,26.0,10,0.00,,,0.00,meteohub,2013-03-25 15:23:00,
2013-03-25 11:29:00,47.1,-8.9,29.68,North,357,13.0,26.0,9,0.00,,,0.00,meteohub,2013-03-25 15:29:00,
2013-03-25 11:34:00,48.0,-8.1,29.68,NNW,327,17.0,26.0,9,0.00,,,0.00,meteohub,2013-03-25 15:34:00,
2013-03-25 11:39:00,46.6,-11.7,29.68,NNW,337,15.0,23.0,8,0.00,,,0.00,meteohub,2013-03-25 15:39:00,
2013-03-25 11:45:00,46.4,-11.7,29.68,North,3,13.0,23.0,8,0.00,,,0.00,meteohub,2013-03-25 15:45:00,
2013-03-25 11:50:00,47.3,-11.2,29.68,North,353,15.0,23.0,8,0.00,,,0.00,meteohub,2013-03-25 15:50:00,
2013-03-25 11:55:00,48.0,-10.5,29.68,NNE,14,15.0,28.0,8,0.00,,,0.00,meteohub,2013-03-25 15:55:00,
2013-03-25 12:00:00,48.4,-10.3,29.68,North,3,20.0,28.0,8,0.00,,,0.00,meteohub,2013-03-25 16:00:00,
2013-03-25 12:05:00,48.4,-10.3,29.68,NNW,348,8.0,28.0,8,0.00,,,0.00,meteohub,2013-03-25 16:05:00,
2013-03-25 12:11:00,48.7,-9.9,29.68,NNW,333,18.0,28.0,8,0.00,,,0.00,meteohub,2013-03-25 16:11:00,
2013-03-25 12:17:00,47.7,-10.8,29.68,North,3,13.0,25.0,8,0.00,,,0.00,meteohub,2013-03-25 16:17:00,
2013-03-25 12:22:00,47.7,-10.8,29.68,NNW,338,16.0,25.0,8,0.00,,,0.00,meteohub,2013-03-25 16:22:00,
2013-03-25 12:27:00,47.8,-10.7,29.68,NNW,335,23.0,25.0,8,0.00,,,0.00,meteohub,2013-03-25 16:27:00,
2013-03-25 12:32:00,47.7,-10.8,29.65,NNW,336,16.0,25.0,8,0.00,,,0.00,meteohub,2013-03-25 16:32:00,
2013-03-25 12:37:00,46.4,-11.7,29.65,NNW,345,12.0,25.0,8,0.00,,,0.00,meteohub,2013-03-25 16:37:00,
2013-03-25 12:42:00,45.9,-9.8,29.65,North,3,19.0,25.0,9,0.00,,,0.00,meteohub,2013-03-25 16:42:00,
2013-03-25 12:48:00,46.6,-11.7,29.65,North,7,15.0,28.0,8,0.00,,,0.00,meteohub,2013-03-25 16:48:00,
2013-03-25 12:54:00,46.4,-11.7,29.65,NNW,339,15.0,28.0,8,0.00,,,0.00,meteohub,2013-03-25 16:54:00,
2013-03-25 12:59:00,47.1,-11.2,29.65,North,3,18.0,25.0,8,0.00,,,0.00,meteohub,2013-03-25 16:59:00,
2013-03-25 13:05:00,47.3,-11.2,29.65,NNW,329,13.0,25.0,8,0.00,,,0.00,meteohub,2013-03-25 17:05:00,
2013-03-25 13:10:00,47.1,-11.2,29.65,North,2,15.0,26.0,8,0.00,,,0.00,meteohub,2013-03-25 17:10:00,
2013-03-25 13:15:00,46.2,-9.6,29.65,NNW,339,17.0,26.0,9,0.00,,,0.00,meteohub,2013-03-25 17:15:00,
2013-03-25 13:20:00,44.6,-10.8,29.65,NNW,348,15.0,26.0,9,0.00,,,0.00,meteohub,2013-03-25 17:20:00,
2013-03-25 13:26:00,45.1,-10.3,29.65,North,353,13.0,26.0,9,0.00,,,0.00,meteohub,2013-03-25 17:26:00,
2013-03-25 13:31:00,45.0,-10.5,29.65,North,1,15.0,30.0,9,0.00,,,0.00,meteohub,2013-03-25 17:31:00,
2013-03-25 13:37:00,44.8,-10.7,29.65,NNE,24,20.0,30.0,9,0.00,,,0.00,meteohub,2013-03-25 17:37:00,
2013-03-25 13:42:00,45.7,-9.9,29.65,North,5,13.0,22.0,9,0.00,,,0.00,meteohub,2013-03-25 17:42:00,
2013-03-25 13:47:00,45.0,-10.5,29.65,North,353,14.0,25.0,9,0.00,,,0.00,meteohub,2013-03-25 17:47:00,
2013-03-25 13:53:00,44.4,-11.0,29.65,NNW,343,13.0,25.0,9,0.00,,,0.00,meteohub,2013-03-25 17:53:00,
2013-03-25 13:58:00,43.7,-11.6,29.65,NNE,21,18.0,24.0,9,0.00,,,0.00,meteohub,2013-03-25 17:58:00,
2013-03-25 14:03:00,43.7,-9.4,29.62,North,357,17.0,24.0,10,0.00,,,0.00,meteohub,2013-03-25 18:03:00,
2013-03-25 14:08:00,42.8,-10.1,29.62,NNW,327,20.0,24.0,10,0.00,,,0.00,meteohub,2013-03-25 18:08:00,
2013-03-25 14:14:00,42.4,-10.3,29.62,North,353,17.0,24.0,10,0.00,,,0.00,meteohub,2013-03-25 18:14:00,
2013-03-25 14:19:00,42.3,-10.5,29.62,NNW,336,13.0,26.0,10,0.00,,,0.00,meteohub,2013-03-25 18:19:00,
2013-03-25 14:24:00,43.0,-9.9,29.62,NNE,28,18.0,26.0,10,0.00,,,0.00,meteohub,2013-03-25 18:24:00,
2013-03-25 14:29:00,43.0,-9.9,29.59,NW,324,15.0,26.0,10,0.00,,,0.00,meteohub,2013-03-25 18:29:00,
2013-03-25 14:34:00,43.0,-9.9,29.59,NNW,335,11.0,26.0,10,0.00,,,0.00,meteohub,2013-03-25 18:34:00,
2013-03-25 14:40:00,42.4,-8.3,29.59,NW,326,13.0,25.0,11,0.00,,,0.00,meteohub,2013-03-25 18:40:00,
2013-03-25 14:45:00,42.1,-8.7,29.59,North,4,11.0,26.0,11,0.00,,,0.00,meteohub,2013-03-25 18:45:00,
2013-03-25 14:50:00,41.5,-9.0,29.59,North,0,15.0,26.0,11,0.00,,,0.00,meteohub,2013-03-25 18:50:00,
2013-03-25 14:55:00,41.4,-9.2,29.59,North,6,25.0,26.0,11,0.00,,,0.00,meteohub,2013-03-25 18:55:00,
2013-03-25 15:01:00,41.5,-9.0,29.56,NNW,330,24.0,27.0,11,0.00,,,0.00,meteohub,2013-03-25 19:01:00,
2013-03-25 15:06:00,41.2,-9.4,29.56,NW,317,13.0,27.0,11,0.00,,,0.00,meteohub,2013-03-25 19:06:00,
2013-03-25 15:12:00,41.2,-9.4,29.56,NW,308,12.0,28.0,11,0.00,,,0.00,meteohub,2013-03-25 19:12:00,
2013-03-25 15:17:00,41.0,-9.6,29.53,NW,320,28.0,28.0,11,0.00,,,0.00,meteohub,2013-03-25 19:17:00,
2013-03-25 15:22:00,41.2,-9.4,29.53,North,357,17.0,28.0,11,0.00,,,0.00,meteohub,2013-03-25 19:22:00,
2013-03-25 15:27:00,41.5,-9.0,29.53,NNW,345,12.0,28.0,11,0.00,,,0.00,meteohub,2013-03-25 19:27:00,
2013-03-25 15:32:00,41.5,-9.0,29.53,NNW,330,23.0,29.0,11,0.00,,,0.00,meteohub,2013-03-25 19:32:00,
2013-03-25 15:37:00,41.5,-9.0,29.53,NNW,331,15.0,29.0,11,0.00,,,0.00,meteohub,2013-03-25 19:37:00,
2013-03-25 15:43:00,41.5,-9.0,29.53,NNW,339,10.0,25.0,11,0.00,,,0.00,meteohub,2013-03-25 19:43:00,
2013-03-25 15:48:00,41.0,-9.6,29.53,North,3,17.0,25.0,11,0.00,,,0.00,meteohub,2013-03-25 19:48:00,
2013-03-25 15:53:00,41.0,-9.6,29.53,NE,36,11.0,25.0,11,0.00,,,0.00,meteohub,2013-03-25 19:53:00,
2013-03-25 15:58:00,41.0,-9.6,29.53,NW,321,11.0,26.0,11,0.00,,,0.00,meteohub,2013-03-25 19:58:00,
2013-03-25 16:03:00,41.0,-9.6,29.53,North,0,15.0,26.0,11,0.00,,,0.00,meteohub,2013-03-25 20:03:00,
2013-03-25 16:09:00,40.8,-9.8,29.53,NNW,334,12.0,24.0,11,0.00,,,0.00,meteohub,2013-03-25 20:09:00,
2013-03-25 16:14:00,40.5,-9.9,29.53,North,349,23.0,24.0,11,0.00,,,0.00,meteohub,2013-03-25 20:14:00,
2013-03-25 16:19:00,40.5,-9.9,29.53,NNW,343,15.0,28.0,11,0.00,,,0.00,meteohub,2013-03-25 20:19:00,
2013-03-25 16:25:00,40.5,-9.9,29.53,NNW,342,23.0,28.0,11,0.00,,,0.00,meteohub,2013-03-25 20:25:00,
2013-03-25 16:30:00,40.3,-10.1,29.53,NNW,341,11.0,28.0,11,0.00,,,0.00,meteohub,2013-03-25 20:30:00,
2013-03-25 16:36:00,40.1,-10.3,29.53,NW,326,26.0,28.0,11,0.00,,,0.00,meteohub,2013-03-25 20:36:00,
2013-03-25 16:41:00,39.7,-10.5,29.53,NNW,327,18.0,26.0,11,0.00,,,0.00,meteohub,2013-03-25 20:41:00,
2013-03-25 16:47:00,39.7,-10.5,29.50,North,353,13.0,26.0,11,0.00,,,0.00,meteohub,2013-03-25 20:47:00,
2013-03-25 16:52:00,39.7,-10.5,29.50,NNW,345,13.0,26.0,11,0.00,,,0.00,meteohub,2013-03-25 20:52:00,
2013-03-25 16:57:00,39.6,-10.7,29.50,NW,326,26.0,26.0,11,0.00,,,0.00,meteohub,2013-03-25 20:57:00,
2013-03-25 17:02:00,39.4,-10.8,29.50,NW,326,15.0,25.0,11,0.00,,,0.00,meteohub,2013-03-25 21:02:00,
2013-03-25 17:07:00,39.2,-11.0,29.50,North,3,22.0,25.0,11,0.00,,,0.00,meteohub,2013-03-25 21:07:00,
2013-03-25 17:12:00,39.4,-10.8,29.50,NNW,327,13.0,25.0,11,0.00,,,0.00,meteohub,2013-03-25 21:12:00,
2013-03-25 17:17:00,39.2,-11.0,29.50,NNE,21,11.0,30.0,11,0.00,,,0.00,meteohub,2013-03-25 21:17:00,
2013-03-25 17:22:00,39.2,-11.0,29.50,NNW,341,18.0,30.0,11,0.00,,,0.00,meteohub,2013-03-25 21:22:00,
2013-03-25 17:28:00,39.2,-11.0,29.50,North,5,10.0,30.0,11,0.00,,,0.00,meteohub,2013-03-25 21:28:00,
2013-03-25 17:33:00,39.2,-11.0,29.50,NNW,332,10.0,27.0,11,0.00,,,0.00,meteohub,2013-03-25 21:33:00,
2013-03-25 17:38:00,39.2,-11.0,29.50,NW,326,11.0,27.0,11,0.00,,,0.00,meteohub,2013-03-25 21:38:00,
2013-03-25 17:43:00,39.2,-11.0,29.50,NNW,333,20.0,27.0,11,0.00,,,0.00,meteohub,2013-03-25 21:43:00,
2013-03-25 17:48:00,39.2,-11.0,29.53,NW,312,14.0,25.0,11,0.00,,,0.00,meteohub,2013-03-25 21:48:00,
2013-03-25 17:54:00,39.2,-11.0,29.53,NNW,332,8.0,25.0,11,0.00,,,0.00,meteohub,2013-03-25 21:54:00,
2013-03-25 17:59:00,39.0,-11.0,29.53,NNW,344,16.0,23.0,11,0.00,,,0.00,meteohub,2013-03-25 21:59:00,
2013-03-25 18:04:00,39.0,-11.0,29.53,North,353,22.0,23.0,11,0.00,,,0.00,meteohub,2013-03-25 22:04:00,
2013-03-25 18:10:00,38.8,-11.2,29.53,North,1,12.0,22.0,11,0.00,,,0.00,meteohub,2013-03-25 22:10:00,
2013-03-25 18:15:00,38.8,-11.2,29.53,NNW,340,13.0,22.0,11,0.00,,,0.00,meteohub,2013-03-25 22:15:00,
2013-03-25 18:20:00,38.8,-11.2,29.53,NW,313,15.0,23.0,11,0.00,,,0.00,meteohub,2013-03-25 22:20:00,
2013-03-25 18:25:00,38.8,-11.2,29.53,NNW,332,15.0,23.0,11,0.00,,,0.00,meteohub,2013-03-25 22:25:00,
2013-03-25 18:30:00,38.7,-11.4,29.53,NNW,345,11.0,23.0,11,0.00,,,0.00,meteohub,2013-03-25 22:30:00,
2013-03-25 18:36:00,38.7,-11.4,29.53,North,0,13.0,23.0,11,0.00,,,0.00,meteohub,2013-03-25 22:36:00,
2013-03-25 18:41:00,38.7,-11.4,29.53,NW,317,13.0,24.0,11,0.00,,,0.00,meteohub,2013-03-25 22:41:00,
2013-03-25 18:47:00,38.7,-11.4,29.53,NNW,335,10.0,24.0,11,0.00,,,0.00,meteohub,2013-03-25 22:47:00,
2013-03-25 18:52:00,38.5,-11.6,29.53,NNW,332,11.0,24.0,11,0.00,,,0.00,meteohub,2013-03-25 22:52:00,
2013-03-25 18:57:00,38.5,-6.7,29.53,WNW,294,17.0,18.0,14,0.00,,,0.00,meteohub,2013-03-25 22:57:00,
2013-03-25 19:02:00,38.5,-6.7,29.53,WNW,300,8.0,18.0,14,0.00,,,0.00,meteohub,2013-03-25 23:02:00,
2013-03-25 19:07:00,38.5,-6.7,29.53,NNW,329,11.0,18.0,14,0.00,,,0.00,meteohub,2013-03-25 23:07:00,
2013-03-25 19:12:00,38.3,-6.7,29.53,NNW,345,14.0,17.0,14,0.00,,,0.00,meteohub,2013-03-25 23:12:00,
2013-03-25 19:17:00,38.3,-6.7,29.50,North,5,9.0,21.0,14,0.00,,,0.00,meteohub,2013-03-25 23:17:00,
2013-03-25 19:22:00,38.3,-11.7,29.50,NNW,344,9.0,21.0,11,0.00,,,0.00,meteohub,2013-03-25 23:22:00,
2013-03-25 19:27:00,38.3,-6.7,29.50,NNW,331,9.0,21.0,14,0.00,,,0.00,meteohub,2013-03-25 23:27:00,
2013-03-25 19:32:00,38.1,-6.9,29.50,NNW,332,20.0,21.0,14,0.00,,,0.00,meteohub,2013-03-25 23:32:00,
2013-03-25 19:37:00,38.1,-11.7,29.50,North,8,20.0,21.0,11,0.00,,,0.00,meteohub,2013-03-25 23:37:00,
2013-03-25 19:42:00,38.1,-11.7,29.50,NNW,334,24.0,24.0,11,0.00,,,0.00,meteohub,2013-03-25 23:42:00,
2013-03-25 19:48:00,38.1,-11.7,29.53,NNW,331,19.0,23.0,11,0.00,,,0.00,meteohub,2013-03-25 23:48:00,
2013-03-25 19:53:00,38.1,-11.7,29.53,NNW,327,11.0,26.0,11,0.00,,,0.00,meteohub,2013-03-25 23:53:00,
2013-03-25 19:58:00,38.1,-11.7,29.53,NNW,340,15.0,26.0,11,0.00,,,0.00,meteohub,2013-03-25 23:58:00,
2013-03-25 20:03:00,38.1,-6.9,29.53,North,353,17.0,26.0,14,0.00,,,0.00,meteohub,2013-03-26 00:03:00,
2013-03-25 20:08:00,38.3,-6.7,29.53,North,357,13.0,26.0,14,0.00,,,0.00,meteohub,2013-03-26 00:08:00,
2013-03-25 20:13:00,38.3,-6.7,29.53,WNW,301,8.0,26.0,14,0.00,,,0.00,meteohub,2013-03-26 00:13:00,
2013-03-25 20:18:00,38.3,-6.7,29.53,NNW,329,9.0,23.0,14,0.00,,,0.00,meteohub,2013-03-26 00:18:00,
2013-03-25 20:23:00,38.3,-6.7,29.53,NNW,329,10.0,23.0,14,0.00,,,0.00,meteohub,2013-03-26 00:23:00,
2013-03-25 20:29:00,38.3,-6.7,29.53,NNW,332,11.0,17.0,14,0.00,,,0.00,meteohub,2013-03-26 00:29:00,
2013-03-25 20:34:00,38.3,-6.7,29.53,NNW,333,12.0,17.0,14,0.00,,,0.00,meteohub,2013-03-26 00:34:00,
2013-03-25 20:39:00,38.3,-6.7,29.53,NNW,333,15.0,17.0,14,0.00,,,0.00,meteohub,2013-03-26 00:39:00,
2013-03-25 20:45:00,38.5,-6.7,29.50,NNW,343,9.0,17.0,14,0.00,,,0.00,meteohub,2013-03-26 00:45:00,
2013-03-25 20:50:00,38.5,-3.8,29.50,NNW,330,15.0,17.0,16,0.00,,,0.00,meteohub,2013-03-26 00:50:00,
2013-03-25 20:55:00,38.3,-4.0,29.50,NNW,333,10.0,17.0,16,0.00,,,0.00,meteohub,2013-03-26 00:55:00,
2013-03-25 21:00:00,37.9,4.3,29.50,NNW,337,6.0,15.0,24,0.00,,,0.00,meteohub,2013-03-26 01:00:00,
2013-03-25 21:05:00,37.9,10.0,29.50,NNW,328,9.0,15.0,31,0.00,,,0.00,meteohub,2013-03-26 01:05:00,
2013-03-25 21:10:00,37.9,14.5,29.50,NW,326,18.0,18.0,38,0.00,,,0.00,meteohub,2013-03-26 01:10:00,
2013-03-25 21:15:00,37.9,15.3,29.50,NW,325,15.0,19.0,39,0.00,,,0.00,meteohub,2013-03-26 01:15:00,
2013-03-25 21:20:00,37.9,15.3,29.50,NW,306,15.0,19.0,39,0.00,,,0.00,meteohub,2013-03-26 01:20:00,
2013-03-25 21:26:00,37.9,15.8,29.50,NNW,345,10.0,19.0,40,0.00,,,0.00,meteohub,2013-03-26 01:26:00,
2013-03-25 21:32:00,37.9,15.8,29.50,NNW,329,8.0,24.0,40,0.00,,,0.00,meteohub,2013-03-26 01:32:00,
2013-03-25 21:37:00,37.9,15.8,29.50,NW,316,9.0,24.0,40,0.00,,,0.00,meteohub,2013-03-26 01:37:00,
2013-03-25 21:42:00,38.1,15.3,29.50,NNW,335,9.0,22.0,39,0.00,,,0.00,meteohub,2013-03-26 01:42:00,
2013-03-25 21:47:00,37.8,11.8,29.50,NW,321,11.0,22.0,34,0.00,,,0.00,meteohub,2013-03-26 01:47:00,
2013-03-25 21:52:00,37.8,10.6,29.50,NNW,327,11.0,21.0,32,0.00,,,0.00,meteohub,2013-03-26 01:52:00,
2013-03-25 21:57:00,37.9,10.8,29.50,NW,313,19.0,21.0,32,0.00,,,0.00,meteohub,2013-03-26 01:57:00,
2013-03-25 22:02:00,37.9,10.0,29.50,NNW,340,23.0,23.0,31,0.00,,,0.00,meteohub,2013-03-26 02:02:00,
2013-03-25 22:07:00,37.9,10.0,29.50,NNW,330,16.0,21.0,31,0.00,,,0.00,meteohub,2013-03-26 02:07:00,
2013-03-25 22:12:00,38.1,10.2,29.50,NNW,342,11.0,26.0,31,0.00,,,0.00,meteohub,2013-03-26 02:12:00,
2013-03-25 22:18:00,38.1,10.2,29.50,NW,318,11.0,25.0,31,0.00,,,0.00,meteohub,2013-03-26 02:18:00,
2013-03-25 22:23:00,38.1,10.2,29.50,NW,321,22.0,25.0,31,0.00,,,0.00,meteohub,2013-03-26 02:23:00,
2013-03-25 22:28:00,37.9,8.4,29.50,NW,326,17.0,26.0,29,0.00,,,0.00,meteohub,2013-03-26 02:28:00,
2013-03-25 22:33:00,37.9,8.4,29.50,NW,313,13.0,26.0,29,0.00,,,0.00,meteohub,2013-03-26 02:33:00,
2013-03-25 22:38:00,38.1,9.5,29.50,NW,313,23.0,26.0,30,0.00,,,0.00,meteohub,2013-03-26 02:38:00,
2013-03-25 22:44:00,37.8,9.9,29.50,NW,323,15.0,26.0,31,0.00,,,0.00,meteohub,2013-03-26 02:44:00,
2013-03-25 22:49:00,37.8,10.6,29.50,NW,326,14.0,24.0,32,0.00,,,0.00,meteohub,2013-03-26 02:49:00,
2013-03-25 22:54:00,37.6,9.7,29.50,NNW,342,15.0,24.0,31,0.00,,,0.00,meteohub,2013-03-26 02:54:00,
2013-03-25 23:00:00,37.6,9.7,29.50,NNW,337,11.0,23.0,31,0.00,,,0.00,meteohub,2013-03-26 03:00:00,
2013-03-25 23:05:00,37.6,8.2,29.50,WNW,302,11.0,23.0,29,0.00,,,0.00,meteohub,2013-03-26 03:05:00,
2013-03-25 23:10:00,37.8,8.4,29.50,NW,317,15.0,23.0,29,0.00,,,0.00,meteohub,2013-03-26 03:10:00,
2013-03-25 23:15:00,37.9,10.0,29.50,NW,323,20.0,21.0,31,0.00,,,0.00,meteohub,2013-03-26 03:15:00,
2013-03-25 23:20:00,37.8,11.3,29.50,NNW,346,20.0,21.0,33,0.00,,,0.00,meteohub,2013-03-26 03:20:00,
2013-03-25 23:25:00,37.6,13.6,29.50,NW,321,12.0,21.0,37,0.00,,,0.00,meteohub,2013-03-26 03:25:00,
2013-03-25 23:30:00,37.4,14.7,29.47,NW,322,8.0,30.0,39,0.00,,,0.00,meteohub,2013-03-26 03:30:00,
2013-03-25 23:37:00,37.4,14.7,29.47,WNW,303,13.0,30.0,39,0.00,,,0.00,meteohub,2013-03-26 03:37:00,
2013-03-25 23:42:00,37.4,12.9,29.47,WNW,282,11.0,17.0,36,0.00,,,0.00,meteohub,2013-03-26 03:42:00,
2013-03-25 23:47:00,37.6,11.1,29.47,NW,308,16.0,18.0,33,0.00,,,0.00,meteohub,2013-03-26 03:47:00,
2013-03-25 23:52:00,37.6,9.7,29.47,NW,314,15.0,18.0,31,0.00,,,0.00,meteohub,2013-03-26 03:52:00,
2013-03-25 23:57:00,37.8,9.9,29.47,NW,323,10.0,21.0,31,0.00,,,0.00,meteohub,2013-03-26 03:57:00,